Location: Boncourt
(49.6160°N, 3.9448°E)
Time: 18:28:26
(UTC+00:00)

Cosmos 1814 Rocket - Pass Details

Date: 09 February 2023
Orbit: 743 x 786 km, 74.1° (Epoch: 25 March)

Event Time Altitude Azimuth Distance (km) Brightness Sun altitude
Rises 17:53:27 0° 337° (NNW) 3,289 7.4 -10.3°
Reaches altitude 10° 17:55:52 10° 340° (NNW) 2,358 6.7 -10.7°
Maximum altitude 18:01:15 71° 65° (ENE) 835 4.0 -11.5°
Drops below altitude 10° 18:06:34 10° 149° (SSE) 2,339 6.3 -12.4°
Sets 18:08:57 0° 152° (SSE) 3,260 7.0 -12.7°
